Oakland, CA

5:44 PM PST on February 09, 2016 (GMT -0800)
Metro Oakland International

Weather History for KOAK - November, 2012

Change the Weather History Date:

Monday, November 5, 2012

  Actual Average Record
Temperature  
Mean Temperature 66 °F 57 °F  
Max Temperature 79 °F 66 °F 79 °F (2012)
Min Temperature 53 °F 48 °F 40 °F (2008)
Degree Days  
Heating Degree Days 0 8  
Month to date heating degree days 18 39  
Since 1 July heating degree days 427 391  
Cooling Degree Days 1 0  
Month to date cooling degree days 1 0  
Year to date cooling degree days 60 137  
Growing Degree Days 17 (Base 50)    
Moisture  
Dew Point 55 °F    
Average Humidity 67    
Maximum Humidity 86    
Minimum Humidity 48    
Precipitation  
Precipitation 0.00 in 0.07 in 2.06 in (1973)
Month to date precipitation 0.26 0.39  
Year to date precipitation 13.03 15.09  
Since 1 July precipitation 1.09  
Sea Level Pressure  
Sea Level Pressure 30.10 in    
Wind  
Wind Speed 3 mph (SW)    
Max Wind Speed 10 mph    
Max Gust Speed 18 mph    
Visibility 10 miles    
Events      
T = Trace of Precipitation, MM = Missing Value Source: NWS Daily Summary

Daily Weather History Graph

Daily Weather History Graph

Search for Another Location

Airport or City:

Trip Planner

Search our weather history database for the weather conditions in past years. The results will help you decide how hot, cold, wet, or windy it might be!

Date:

Astronomy

Nov. 05, 2012 Rise Set
Actual Time 6:38 AM PST 5:05 PM PST
Civil Twilight 6:11 AM PST 5:32 PM PST
Nautical Twilight 5:40 AM PST 6:04 PM PST
Astronomical Twilight 5:09 AM PST 6:34 PM PST
Moon 10:48 PM PST (11/5) 12:01 PM PST (11/5)
Length of Visible Light 11h 21m
Length of Day
10h 26m
Waning Gibbous, 62% of the Moon is Illuminated
Nov 5
Waning Gibbous
Nov 6
Last Quarter
Nov 13
New
Nov 20
First Quarter
Nov 28
Full

Hourly Weather History & Observations

Time (PST) Temp. Dew Point Humidity Pressure Visibility Wind Dir Wind Speed Gust Speed Precip Events Conditions
12:53 AM 57.9 °F 53.1 °F 84% 30.15 in 10.0 mi Calm Calm - N/A   Clear
1:53 AM 60.1 °F 54.0 °F 80% 30.14 in 10.0 mi Calm Calm - N/A   Clear
2:53 AM 55.9 °F 51.1 °F 84% 30.14 in 10.0 mi East 3.5 mph - N/A   Clear
3:53 AM 57.9 °F 53.1 °F 84% 30.12 in 10.0 mi Calm Calm - N/A   Clear
4:53 AM 57.0 °F 52.0 °F 83% 30.14 in 10.0 mi Calm Calm - N/A   Clear
5:53 AM 59.0 °F 53.1 °F 81% 30.14 in 10.0 mi Calm Calm - N/A   Clear
6:53 AM 60.1 °F 53.1 °F 78% 30.14 in 10.0 mi SE 3.5 mph - N/A   Clear
7:53 AM 63.0 °F 55.0 °F 75% 30.16 in 10.0 mi Calm Calm - N/A   Clear
8:53 AM 66.9 °F 57.9 °F 73% 30.16 in 10.0 mi SSE 8.1 mph - N/A   Clear
9:53 AM 69.1 °F 57.0 °F 65% 30.14 in 10.0 mi South 8.1 mph - N/A   Clear
10:53 AM 68.0 °F 55.9 °F 65% 30.13 in 10.0 mi SW 4.6 mph - N/A   Clear
11:53 AM 70.0 °F 55.9 °F 61% 30.10 in 10.0 mi WSW 3.5 mph - N/A   Clear
12:53 PM 75.0 °F 55.0 °F 50% 30.07 in 10.0 mi WNW 5.8 mph - N/A   Clear
1:53 PM 73.0 °F 57.0 °F 57% 30.05 in 10.0 mi WSW 5.8 mph - N/A   Clear
2:53 PM 79.0 °F 57.9 °F 48% 30.04 in 10.0 mi WNW 6.9 mph - N/A   Clear
3:53 PM 75.9 °F 57.0 °F 52% 30.04 in 10.0 mi WNW 9.2 mph - N/A   Clear
4:53 PM 73.0 °F 57.9 °F 59% 30.04 in 10.0 mi Calm Calm - N/A   Clear
5:53 PM 73.0 °F 57.0 °F 57% 30.05 in 10.0 mi Calm Calm - N/A   Clear
6:53 PM 66.9 °F 57.9 °F 73% 30.06 in 10.0 mi Calm Calm - N/A   Clear
7:53 PM 68.0 °F 54.0 °F 61% 30.06 in 10.0 mi ENE 3.5 mph - N/A   Clear
8:53 PM 64.0 °F 53.1 °F 67% 30.06 in 10.0 mi ENE 3.5 mph - N/A   Clear
9:53 PM 63.0 °F 54.0 °F 72% 30.06 in 10.0 mi Calm Calm - N/A   Clear
10:53 PM 63.0 °F 55.0 °F 75% 30.06 in 10.0 mi Calm Calm - N/A   Clear
11:53 PM 59.0 °F 54.0 °F 83% 30.06 in 10.0 mi Calm Calm - N/A   Clear